Regional Weather Roundup
Issued by NWS Sioux Falls, SD

Home | Current Version | Previous Version | Graphics & Text | Print | Product List | Glossary On
Versions: 1 2 3 4 5 6 7 8 9 10 11 12 13 14 15 16 17 18 19 20 21 22 23 24 25 26 27 28 29 30 31 32 33 34 35 36 37 38 39 40 41 42 43 44 45 46 47 48 49 50
000
ASUS43 KFSD 051202
RWRFSD

WEATHER ROUNDUP FOR SE SOUTH DAKOTA/SW MINNESOTA/NW IOWA
NATIONAL WEATHER SERVICE SIOUX FALLS SD
600 AM CST THU MAR 05 2015

NOTE: "FAIR" INDICATES FEW OR NO CLOUDS BELOW 12,000 FEET WITH NO
SIGNIFICANT WEATHER AND OR OBSTRUCTIONS TO VISIBILITY.


SDZ038>040-050-052>070-051300-
SOUTHEAST SOUTH DAKOTA

CITY           SKY/WX    TMP DP  RH WIND       PRES   REMARKS
CHAMBERLAIN    NOT AVBL
HURON          PTCLDY    -6 -12  75 S7        30.42R WCI -20
6HR MIN TEMP: -10; 6HR MAX TEMP:  -6;

MADISON        FAIR      -9 -13  84 W3        30.39S
MITCHELL       PTCLDY    -6 -11  79 S5        30.44S WCI -17
6HR MIN TEMP:  -9; 6HR MAX TEMP:  -2;

SIOUX FALLS    PTCLDY    -9 -14  78 CALM      30.44R
6HR MIN TEMP: -10; 6HR MAX TEMP:  -6;

WINNER         FAIR       7  -4  60 SW14      30.31S WCI -10
YANKTON        PTCLDY    -2  -8  78 CALM      30.48S
$$

MNZ071-072-080-081-089-090-097-098-051300-
SOUTHWEST MINNESOTA

CITY           SKY/WX    TMP DP  RH WIND       PRES   REMARKS
FAIRMONT       FAIR      -6 -11  77 W6        30.44R WCI -18
JACKSON        CLEAR     -8 -15  71 W6        30.44R WCI -21
LUVERNE        PTCLDY    -8 -15  71 CALM      30.45S
MARSHALL       CLEAR     -8 -15  71 SW7       30.45R WCI -22
6HR MIN TEMP:  -8; 6HR MAX TEMP:  -6;

MONTEVIDEO     PTCLDY    -9 -15  77 W3        30.47R
PIPESTONE      PTCLDY   -15 -18  84 CALM      30.40R
REDWOOD FALLS  CLEAR     -8 -14  74 W6        30.47R WCI -21
TRACY          CLEAR     -7 -14  72 SW8       30.45R WCI -23
WINDOM         CLEAR     -9 -15  77 CALM      30.44R
WORTHINGTON    PTCLDY   -11 -20  64 W8        30.44R WCI -28
$$

IAZ001>003-012>014-020>022-031-032-NEZ013-014-SDZ071-051300-
NORTHWEST IOWA

CITY           SKY/WX    TMP DP  RH WIND       PRES   REMARKS
DENISON        CLEAR     -6 -11  77 CALM      30.49R
ESTHERVILLE    CLEAR     -7 -12  79 W6        30.45R WCI -20
SIOUX CITY     CLEAR     -2  -7  79 CALM      30.51R
6HR MIN TEMP:  -3; 6HR MAX TEMP:   2;

SPENCER        FAIR      -9 -15  75 W6        30.47R WCI -22
6HR MIN TEMP: -10; 6HR MAX TEMP:  -4;

$$

ABBREVIATIONS USED IN REMARKS
   TC - TEMPERATURE IN CELSIUS
  WCI - WIND CHILL INDEX
   HX - HEAT INDEX
  VSB - VISIBILITY



USA.gov is the U.S. government's official web portal to all federal, state and local government web resources and services.